Regional Weather Roundup
Issued by NWS Charleston, SC

Home | Current Version | Previous Version | Text Only | Print | Product List | Glossary On
Versions: 1 2 3 4 5 6 7 8 9 10 11 12 13 14 15 16 17 18 19 20 21 22 23 24 25 26 27 28 29 30 31 32 33 34 35 36 37 38 39 40 41 42 43 44 45 46 47 48 49 50
000
ASUS42 KCHS 191427
RWRCHS

REGIONAL WEATHER ROUNDUP
NATIONAL WEATHER SERVICE CHARLESTON SC
900 AM EST SUN NOV 19 2017

NOTE: "FAIR" INDICATES FEW OR NO CLOUDS BELOW 12,000 FEET WITH NO
SIGNIFICANT WEATHER AND/OR OBSTRUCTIONS TO VISIBILITY.

NOT ALL STATIONS ARE QUALITY CONTROLLED. USE DATA WITH CAUTION...
ESPECIALLY DEWPOINT OBSERVATIONS.

SCZ027-030-031-034>040-042>050-191500-
...SOUTHEAST SOUTH CAROLINA...

CITY           SKY/WX    TMP DP  RH WIND       PRES   REMARKS
N CHARLESTON   PTSUNNY   61  56  83 W12       29.83R
WATERFRONT PRK NOT AVBL
JOHNS ISLAND   PTSUNNY   63  55  77 W17G24    29.84R
PINOPOLIS        N/A     61  55  82 W12       29.73R
MONCKS CORNER  CLOUDY    59  50  72 NW6       29.85R
SUMMERVILLE    CLOUDY    59  48  67 W13       29.87R
BEAUFORT MCAS  NOT AVBL
BEAUFORT ARPT  PTSUNNY   59  50  72 NW18G26   29.88R
HILTON HEAD IS PTSUNNY   61  54  77 NW13G20   29.88
WALTERBORO     MOSUNNY   59  48  67 NW14G22   29.89R
ALLENDALE      FAIR      57  45  62 VRB3G12   29.91R

...SOUTHERN MIDLANDS AND PEE DEE...

CITY           SKY/WX    TMP DP  RH WIND       PRES   REMARKS
GEORGETOWN     FAIR      63  55  77 W14G21    29.82R
KINGSTREE      FAIR      59  43  55 NW13      29.84R
ORANGEBURG     MOSUNNY   56  43  61 NW13G18   29.88R
BARNWELL         N/A     55  45  67 W9        29.92R
AIKEN          FAIR      52  39  62 W12G20    29.94R
MANNING        FAIR      59  46  63 MISG      29.86R
COLUMBIA       MOSUNNY   57  39  51 NW9       29.89R
SUMTER         MOSUNNY   56  38  51 NW16G24   29.84R
FLORENCE       MOSUNNY   60  41  49 N10       29.83R
MYRTLE BEACH   PTSUNNY   65  57  75 W17       29.79R
N MYRTLE BEACH PTSUNNY   65  57  75 W12G21    29.77R

$$

GAZ063-065-086>088-099>101-113>116-118-119-134>141-150-191500-
...SOUTHEAST GEORGIA...

CITY           SKY/WX    TMP DP  RH WIND       PRES   REMARKS
SAVANNAH ARPT  PTSUNNY   59  46  62 NW17      29.91R
HUNTER AAF     MOSUNNY   59  48  67 W13G21    29.88R
FORT STEWART   CLOUDY    58  49  71 NW14      29.89R
STATESBORO     CLOUDY    56  39  54 NW16G26   29.94R
SYLVANIA       MOSUNNY   56  46  68 NW17      29.94R
CLAXTON        FAIR      57  45  64 W14G21    29.95R

...CSRA...CENTRAL AND FAR SOUTHEAST GEORGIA...

CITY           SKY/WX    TMP DP  RH WIND       PRES   REMARKS
THOMSON        SUNNY     50  39  65 N13       29.99R
AUGUSTA-BUSH   SUNNY     53  41  63 NW13      29.93R
AUGUSTA-DANIEL SUNNY     53  40  61 NW14G25   29.93R
SWAINSBORO     FAIR      50  43  76 NW14      29.97R
VIDALIA        MOSUNNY   55  45  67 NW21G26   29.96R
EASTMAN        FAIR      52  33  49 NW7       30.03R
HAZLEHURST     FAIR      56  36  46 N8G20     29.97R
ALMA           MOSUNNY   56  44  64 NW15      29.96R
WAYCROSS       MOSUNNY   59  43  56 N15       29.96R
JESUP          FAIR      59  46  63 NW14G21   29.94R
BAXLEY         FAIR      54  43  66 NW12G21   29.96R
BRUNSWICK      CLOUDY    61  54  77 NW14      29.92R
SAINT SIMONS   CLOUDY    62  57  83 NW15G22   29.90R

$$

SCZ027-028-034-036>038-045-046-048>050-GAZ119-141-191500-
...LAKE AND SUPPLEMENTAL COASTAL OBSERVATIONS...

STATION/POSITION TIME  TEMP    WIND        PRES    WAVE   SWELL
                       AIR SEA DIR/SP/G            HT/PER HT/PER/DIR
                 (UTC) (F)     (DEG/KT/KT) (MB)    (FT/S) (FT/S/D)
WINYAH BAY       1330   63     280/ 10     1009.0R
LAKE MURRAY      1420   55                 1011.9R
ACE BASIN NERRS  1345   61     280/  5     1011.0R
FORT PULASKI     NOT AVBL
SAPELO ISLAND    1400   62     310/ 11     1012.0

$$

ANZ835-935-AMZ111-154-330-350-352-354-370-450-454-472-191500-
...C-MAN AND BUOY OBSERVATIONS...

STATION/POSITION TIME  TEMP    WIND        PRES    WAVE   SWELL
                       AIR SEA DIR/SP/G            HT/PER HT/PER/DIR
                 (UTC) (F)     (DEG/KT/KT) (MB)    (FT/S) (FT/S/D)
BUOY 41004       1410   67 75  270/ 23/ 27 1009.1
BUOY 41008       1350   64 69  290/ 19/ 23 1010.8R   4/ 5   2/100/ 9
FOLLY BEACH CMAN 1400   63     290/ 10/ 14 1010.7R
CAPERS NEARSHORE 1408   60 64  290/ 16/ 21 1009.5R
FRIPP NEARSHORE  1408   59 63  280/ 23/ 31 1010.4R


STATION/POSITION TIME  TEMP    WIND        PRES    WAVE   SWELL
                       AIR SEA DIR/SP/G            HT/PER HT/PER/DIR
                 (UTC) (F)     (DEG/KT/KT) (MB)    (FT/S) (FT/S/D)
5E ST. MARYS GA  1400      67                N/A     2/10
FRYING PAN BUOY  1410   69 71  270/ 25/ 31 1007.5
BUOY 41025       1410   65 65  250/ 27/ 33 1004.9
CAPE LOOKOUT NC  1400          240/ 17/ 22 1006.1R
BUOY 41002       1350   76 77  220/ 23/ 29 1010.4R   6/ 6   2/ 60/11
BUOY 41010       NOT AVBL
ST AUGUSTINE FL  1400   69 68  220/ 10/ 13 1012.2R


$$



USA.gov is the U.S. government's official web portal to all federal, state and local government web resources and services.